FW8265 Weather Reports


time (UTC)temp
C
wind
direction
speed
KPH
gust
KPH
rain 1hr
cm
rain 24hr
cm
rain mn
cm
humidity
%
barometer
mb
20260903011619 28 0 0.0 0.0 0.00 0.00 0.00 74 1016.9
20260903010113 28 0 0.0 0.0 0.00 0.00 0.00 73 1016.7
20260903004606 29 0 0.0 0.0 0.00 0.00 0.00 71 1016.5
20260903003120 30 0 0.0 0.0 0.00 0.00 0.00 70 1016.5
20260903001600 31 0 0.0 0.0 0.00 0.00 0.00 68 1016.4
20260903000108 31 0 0.0 0.0 0.00 0.00 0.00 65 1016.5
20260902234608 32 0 0.0 0.0 0.00 0.00 0.00 62 1016.4
20260902233058 32 0 0.0 0.0 0.00 0.00 0.00 61 1016.4
20260902231603 33 0 0.0 0.0 0.00 0.00 0.00 60 1016.5
20260902230104 33 0 0.0 0.0 0.00 0.00 0.00 58 1016.6
20260902224601 33 0 0.0 0.0 0.00 0.00 0.00 57 1016.5
20260902223101 34 0 0.0 0.0 0.00 0.00 0.00 56 1016.4
20260902221601 34 0 0.0 3.2 0.00 0.00 0.00 55 1016.6
20260902220058 34 0 0.0 3.2 0.00 0.00 0.00 54 1016.6
20260902214556 34 0 0.0 3.2 0.00 0.00 0.00 53 1016.6
20260902213101 34 183 0.0 1.6 0.00 0.00 0.00 54 1016.6
20260902211600 34 0 0.0 8.0 0.00 0.00 0.00 54 1016.7
20260902210105 35 0 0.0 3.2 0.00 0.00 0.00 54 1016.8
20260902204601 35 0 0.0 4.8 0.00 0.00 0.00 51 1016.8
20260902203105 36 0 0.0 3.2 0.00 0.00 0.00 48 1017.0
20260902201601 37 0 0.0 11.3 0.00 0.00 0.00 48 1017.2
20260902200100 36 0 0.0 4.8 0.00 0.00 0.00 49 1017.3
20260902194602 36 0 0.0 4.8 0.00 0.00 0.00 49 1017.4
20260902193103 35 246 0.0 6.4 0.00 0.00 0.00 52 1017.5
20260902191602 36 0 0.0 3.2 0.00 0.00 0.00 49 1017.6
20260902190109 36 0 0.0 0.0 0.00 0.00 0.00 54 1017.8
20260902184559 36 0 0.0 1.6 0.00 0.00 0.00 53 1018.0
20260902183104 37 0 0.0 0.0 0.00 0.00 0.00 51 1018.1
20260902181558 36 0 0.0 3.2 0.00 0.00 0.00 53 1018.2
20260902180059 36 0 0.0 3.2 0.00 0.00 0.00 50 1018.3
20260902174605 36 0 0.0 1.6 0.00 0.00 0.00 53 1018.4
20260902173059 36 0 0.0 4.8 0.00 0.00 0.00 50 1018.6
20260902171603 37 160 0.0 3.2 0.00 0.00 0.00 49 1018.6
20260902170103 36 0 0.0 4.8 0.00 0.00 0.00 51 1018.6
20260902164607 36 0 0.0 8.0 0.00 0.00 0.00 53 1018.7
20260902163055 36 0 0.0 3.2 0.00 0.00 0.00 56 1018.8
20260902161606 35 0 0.0 1.6 0.00 0.00 0.00 57 1018.9
20260902160109 35 0 0.0 4.8 0.00 0.00 0.00 58 1019.0
20260902154602 34 0 0.0 3.2 0.00 0.00 0.00 61 1019.1
20260902153054 34 40 0.0 4.8 0.00 0.00 0.00 62 1019.3
20260902151609 33 0 0.0 3.2 0.00 0.00 0.00 61 1019.3
20260902150059 33 0 0.0 3.2 0.00 0.00 0.00 64 1019.4
20260902144554 32 0 0.0 3.2 0.00 0.00 0.00 65 1019.3
20260902143107 32 0 0.0 0.0 0.00 0.00 0.00 67 1019.5
20260902141557 32 0 0.0 0.0 0.00 0.00 0.00 70 1019.5
20260902140055 31 0 0.0 3.2 0.00 0.00 0.00 73 1019.6
20260902134557 30 126 0.0 3.2 0.00 0.00 0.00 76 1019.5
20260902133106 28 0 0.0 1.6 0.00 0.00 0.00 79 1019.3
20260902131604 27 0 0.0 1.6 0.00 0.00 0.00 83 1019.3
20260902130104 25 0 0.0 3.2 0.00 0.00 0.00 88 1019.3
20260902124558 23 0 0.0 1.6 0.00 0.00 0.00 95 1019.3
20260902123100 23 0 0.0 1.6 0.00 0.00 0.00 98 1019.0
20260902121552 22 0 0.0 0.0 0.00 0.00 0.00 98 1018.9
20260902120100 21 0 0.0 0.0 0.00 0.00 0.00 97 1018.9
20260902114557 21 0 0.0 0.0 0.00 0.00 0.00 97 1018.7
20260902113100 21 0 0.0 0.0 0.00 0.00 0.00 96 1018.5
20260902111600 21 0 0.0 0.0 0.00 0.00 0.00 96 1018.4
20260902104617 21 0 0.0 0.0 0.00 0.00 0.00 96 1018.4
20260902103053 21 0 0.0 0.0 0.00 0.00 0.00 96 1018.5
20260902101602 21 0 0.0 0.0 0.00 0.00 0.00 96 1018.4
20260902100123 21 0 0.0 0.0 0.00 0.00 0.00 95 1018.4
20260902094606 21 0 0.0 0.0 0.00 0.00 0.00 95 1018.4
20260902093120 21 0 0.0 0.0 0.00 0.00 0.00 95 1018.5
20260902091609 22 0 0.0 0.0 0.00 0.00 0.00 95 1018.3
20260902090104 22 0 0.0 0.0 0.00 0.00 0.00 95 1018.2
20260902084607 22 0 0.0 0.0 0.00 0.00 0.00 94 1018.0
20260902083108 22 0 0.0 0.0 0.00 0.00 0.00 94 1018.0
20260902081615 22 0 0.0 0.0 0.00 0.00 0.00 94 1017.9
20260902080100 22 0 0.0 0.0 0.00 0.00 0.00 94 1017.8
20260902074600 22 0 0.0 0.0 0.00 0.00 0.00 93 1017.7
20260902073056 22 0 0.0 0.0 0.00 0.00 0.00 93 1017.7
20260902071602 22 0 0.0 0.0 0.00 0.00 0.00 93 1017.6
20260902070056 22 0 0.0 0.0 0.00 0.00 0.00 92 1017.6
20260902064608 23 0 0.0 0.0 0.00 0.00 0.00 92 1017.6
20260902063127 23 0 0.0 0.0 0.00 0.00 0.00 92 1017.6
20260902061602 23 0 0.0 0.0 0.00 0.00 0.00 92 1017.6
20260902060133 23 0 0.0 0.0 0.00 0.00 0.00 91 1017.9
20260902054600 23 0 0.0 0.0 0.00 0.00 0.00 91 1018.0
20260902053102 23 0 0.0 0.0 0.00 0.00 0.00 90 1017.9
20260902051609 23 0 0.0 0.0 0.00 0.00 0.00 90 1017.7
20260902050058 24 0 0.0 0.0 0.00 0.00 0.00 89 1017.7
20260902044558 24 0 0.0 0.0 0.00 0.00 0.00 88 1017.6
20260902043110 24 0 0.0 0.0 0.00 0.00 0.00 88 1017.8
20260902041600 25 0 0.0 0.0 0.00 0.00 0.00 87 1017.8
20260902034557 25 0 0.0 0.0 0.00 0.00 0.00 85 1017.8
20260902033117 25 0 0.0 0.0 0.00 0.00 0.00 85 1017.8
20260902031601 25 0 0.0 0.0 0.00 0.00 0.00 84 1017.8
20260902030057 26 0 0.0 0.0 0.00 0.00 0.00 83 1017.9
20260902024608 26 0 0.0 0.0 0.00 0.00 0.00 83 1017.9
20260902023058 26 0 0.0 0.0 0.00 0.00 0.00 81 1017.8
20260902021558 26 0 0.0 0.0 0.00 0.00 0.00 80 1017.9
20260902020131 27 0 0.0 0.0 0.00 0.00 0.00 79 1017.9
20260902014602 27 0 0.0 0.0 0.00 0.00 0.00 78 1017.7
20260902013058 27 0 0.0 0.0 0.00 0.00 0.00 76 1017.6